Location: Newark
(7.0858°N, 171.3717°E)
Time: 04:10:29
(UTC+00:00)

Vanguard 2 - Pass Details

Date: 25 November 2020
Orbit: 553 x 2937 km, 32.9° (Epoch: 26 January)

Event Time Altitude Azimuth Distance (km) Brightness Sun altitude
Rises 18:56:38 0° 225° (SW) 5,967 11.8 5.5°
Reaches altitude 10° 19:01:19 10° 220° (SW) 4,593 11.3 6.6°
Maximum altitude 19:12:31 49° 150° (SSE) 1,778 10.1 9.2°
Drops below altitude 10° 19:19:14 10° 76° (ENE) 2,818 11.4 10.7°
Sets 19:21:27 0° 70° (ENE) 3,539 11.7 11.2°
